Regional Weather Roundup
Issued by NWS Sioux Falls, SD

Home | Current Version | Previous Version | Text Only | Print | Product List | Glossary On
Versions: 1 2 3 4 5 6 7 8 9 10 11 12 13 14 15 16 17 18 19 20 21 22 23 24 25 26 27 28 29 30 31 32 33 34 35 36 37 38 39 40 41 42 43 44 45 46 47 48 49 50
000
ASUS43 KFSD 200710
RWRFSD

WEATHER ROUNDUP FOR SE SOUTH DAKOTA/SW MINNESOTA/NW IOWA
NATIONAL WEATHER SERVICE SIOUX FALLS SD
200 AM CDT SUN APR 20 2014

NOTE: "FAIR" INDICATES FEW OR NO CLOUDS BELOW 12,000 FEET WITH NO
SIGNIFICANT WEATHER AND OR OBSTRUCTIONS TO VISIBILITY.


SDZ038>040-050-052>070-200800-
SOUTHEAST SOUTH DAKOTA

CITY           SKY/WX    TMP DP  RH WIND       PRES   REMARKS
CHAMBERLAIN      N/A     49  24  37 CALM      30.01R
HURON          PTCLDY    43  33  68 CALM      29.99S
MADISON        FAIR      43  27  52 CALM      30.01S
MITCHELL       PTCLDY    45  32  60 CALM      30.00S
SIOUX FALLS    CLOUDY    53  41  63 E5        30.01S
WINNER         FAIR      47  18  31 SE8       30.00F
YANKTON        PTCLDY    54  36  50 N7        30.00S
$$

MNZ071-072-080-081-089-090-097-098-200800-
SOUTHWEST MINNESOTA

CITY           SKY/WX    TMP DP  RH WIND       PRES   REMARKS
FAIRMONT       CLOUDY    54  45  71 N5        30.04R
JACKSON        CLOUDY    52  45  76 CALM      30.03S
LUVERNE        CLOUDY    54  43  66 NE3       30.02S
MARSHALL       PTCLDY    46  34  61 SW10      30.01S
MONTEVIDEO     CLEAR     46  37  71 SW5       30.01S
PIPESTONE      CLOUDY    52  34  50 SE3       30.01S
REDWOOD FALLS  MOCLDY    52  45  77 S7        30.01S
TRACY          MOCLDY    55  43  62 CALM      30.02S
WINDOM         MOCLDY    54  46  76 SE5       30.03S
WORTHINGTON    MOCLDY    52  43  71 E7        30.04F
$$

IAZ001>003-012>014-020>022-031-032-NEZ013-014-SDZ071-200800-
NORTHWEST IOWA

CITY           SKY/WX    TMP DP  RH WIND       PRES   REMARKS
CHEROKEE       CLOUDY    58  44  60 CALM      29.99F
DENISON        CLOUDY    66  45  45 S13G21    29.99F
ESTHERVILLE    CLOUDY    54  47  77 N5        30.02R
LE MARS        MOCLDY    55  48  76 NE9       29.98F
ORANGE CITY    CLOUDY    59  45  58 E9        29.99F
SHELDON        CLOUDY    54  41  62 E9        30.00F
SIOUX CITY     PTCLDY    56  45  66 CALM      29.98S
SPENCER        CLOUDY    56  45  66 NE9       30.01F
STORM LAKE     CLOUDY    63  45  51 S12       30.01F
$$

ABBREVIATIONS USED IN REMARKS
   TC - TEMPERATURE IN CELSIUS
  WCI - WIND CHILL INDEX
   HX - HEAT INDEX
  VSB - VISIBILITY




USA.gov is the U.S. government's official web portal to all federal, state and local government web resources and services.